STARLINK-32736 (62443 NORAD) Tracking and Keplerian Element Data

This shows tracking and keplerian element data for the satellite.

Feedback or suggestion? Click here.




ElementValue
Catalog62443
NameSTARLINK-32736
Epoch Orbit664
Epoch Day35.19654674
Epoch Year2025
RAAN35.0493
Inclination53.1625
Eccentricity0.0001497
Argument of Perigee82.4085
Mean Anonmoly277.709
Mean Motion15.3962072
Decay Rate1.483E-05
L11 62443U 24251M 25035.19654674 .00001483 00000+0 47049-4 0 9993
L22 62443 53.1625 35.0493 0001497 82.4085 277.7090 15.39620720 6648



Live tracking and technical data element details for STARLINK-32736 (NORAD 62443). STARLINK-32736 can be tracked NOW for your location showing map with azimuth and elevation plus other details from your city location.







IsCatalogInMostPopularTable: catalog: 62443, numindb: 18
Update: records affected: 1



GetName: 62443 STARLINK-32736

Hit Count: updated at: Sat, 24 May 2025 15:41:33 GMT